Total_Precipitation_Accumulation
0.51 0.71 1.02 1.35 1.73 2.36 3.03 3.23 2.82 2.39 1.99 1.70 1.44 1.19 0.99 0.93 0.87 0.74 0.69 0.69 0.71 0.74 0.83 0.72 0.80 0.95 0.95 0.92 0.98 1.04 0.96 0.81 0.98 1.04 0.75 0.60 0.56 0.58 0.54 0.50 0.49 0.43 0.44
0.73 1.01 1.39 1.61 1.84 2.26 2.72 2.70 2.26 1.81 1.33 1.04 0.93 0.82 0.70 0.60 0.51 0.48 0.52 0.49 0.55 0.63 0.72 0.66 0.58 0.63 0.65 0.60 0.65 0.82 0.84 0.74 0.87 0.96 0.83 0.58 0.53 0.49 0.37 0.41 0.41 0.39 0.47
0.74 1.19 1.69 1.94 2.06 2.07 1.95 1.79 1.36 0.88 0.66 0.50 0.48 0.43 0.41 0.41 0.33 0.30 0.33 0.32 0.35 0.39 0.47 0.50 0.50 0.55 0.62 0.61 0.61 0.65 0.69 0.63 0.64 0.79 0.89 0.69 0.47 0.40 0.37 0.39 0.37 0.42 0.54
0.74 1.28 1.60 1.64 1.64 1.52 1.17 0.89 0.69 0.45 0.33 0.30 0.33 0.34 0.31 0.31 0.27 0.24 0.25 0.24 0.24 0.27 0.30 0.33 0.34 0.41 0.52 0.59 0.54 0.55 0.58 0.57 0.50 0.56 0.65 0.66 0.60 0.53 0.41 0.39 0.43 0.47 0.57
0.53 0.78 0.87 0.93 0.94 0.84 0.68 0.54 0.47 0.37 0.36 0.36 0.39 0.40 0.29 0.24 0.22 0.21 0.20 0.21 0.24 0.26 0.27 0.28 0.28 0.31 0.35 0.39 0.42 0.49 0.52 0.54 0.50 0.49 0.55 0.63 0.66 0.65 0.56 0.45 0.44 0.44 0.41
0.36 0.48 0.47 0.44 0.42 0.34 0.35 0.37 0.44 0.48 0.44 0.36 0.32 0.32 0.28 0.24 0.21 0.18 0.19 0.20 0.22 0.26 0.29 0.30 0.30 0.32 0.33 0.34 0.36 0.40 0.44 0.50 0.54 0.52 0.56 0.65 0.69 0.65 0.65 0.57 0.49 0.47 0.42
0.35 0.40 0.44 0.41 0.32 0.25 0.26 0.26 0.25 0.29 0.31 0.28 0.27 0.27 0.27 0.25 0.23 0.20 0.16 0.17 0.19 0.23 0.27 0.32 0.34 0.37 0.37 0.37 0.38 0.38 0.41 0.47 0.55 0.56 0.54 0.57 0.62 0.69 0.71 0.65 0.56 0.59 0.59
0.25 0.26 0.26 0.24 0.19 0.14 0.11 0.10 0.11 0.12 0.13 0.14 0.16 0.18 0.22 0.20 0.20 0.23 0.19 0.17 0.20 0.24 0.28 0.29 0.30 0.34 0.36 0.38 0.40 0.36 0.36 0.46 0.55 0.60 0.68 0.66 0.59 0.74 0.82 0.77 0.77 0.74 0.78
0.09 0.10 0.08 0.07 0.07 0.05 0.04 0.04 0.05 0.05 0.06 0.07 0.09 0.12 0.16 0.18 0.18 0.20 0.19 0.19 0.25 0.26 0.28 0.29 0.30 0.32 0.35 0.38 0.40 0.41 0.45 0.52 0.56 0.63 0.77 0.82 0.78 0.78 0.83 0.89 0.93 0.98 0.94
0.03 0.04 0.04 0.03 0.02 0.02 0.02 0.02 0.02 0.03 0.03 0.04 0.05 0.07 0.09 0.13 0.15 0.15 0.18 0.21 0.21 0.22 0.27 0.32 0.34 0.34 0.35 0.43 0.49 0.49 0.50 0.58 0.68 0.79 0.88 0.93 0.95 0.94 0.87 0.91 0.96 0.98 1.03
0.01 0.01 0.01 0.01 0.01 0.01 0.01 0.01 0.02 0.02 0.02 0.02 0.03 0.04 0.06 0.08 0.11 0.14 0.16 0.19 0.19 0.21 0.24 0.30 0.34 0.35 0.42 0.60 0.78 0.76 0.68 0.74 0.83 0.92 1.03 1.07 1.12 1.11 1.01 0.96 0.93 0.93 1.02
0.00 0.00 0.00 0.00 0.00 0.01 0.01 0.01 0.02 0.02 0.02 0.02 0.02 0.03 0.05 0.06 0.07 0.09 0.13 0.16 0.19 0.18 0.18 0.20 0.24 0.27 0.34 0.50 0.81 0.98 1.01 0.98 0.91 0.96 1.12 1.20 1.17 1.08 1.02 1.01 0.97 0.96 1.04
0.00 0.00 0.00 0.00 0.00 0.01 0.01 0.01 0.01 0.01 0.01 0.01 0.02 0.02 0.02 0.04 0.05 0.07 0.10 0.13 0.17 0.18 0.18 0.19 0.24 0.29 0.30 0.37 0.57 0.80 0.92 0.95 0.92 0.97 1.02 1.05 1.12 1.10 1.02 0.96 0.94 0.93 1.03
0.00 0.00 0.00 0.00 0.00 0.00 0.00 0.00 0.00 0.00 0.00 0.01 0.01 0.02 0.02 0.03 0.05 0.06 0.09 0.12 0.15 0.17 0.21 0.24 0.29 0.31 0.27 0.28 0.41 0.56 0.67 0.73 0.78 0.84 0.89 0.92 0.95 1.02 1.07 1.00 0.96 0.97 0.99
0.00 0.00 0.00 0.00 0.00 0.00 0.00 0.00 0.01 0.01 0.02 0.03 0.04 0.04 0.04 0.04 0.05 0.06 0.09 0.11 0.12 0.13 0.19 0.26 0.29 0.27 0.24 0.28 0.41 0.46 0.42 0.47 0.53 0.56 0.58 0.69 0.85 0.95 1.00 0.96 0.94 0.98 0.98
0.02 0.02 0.02 0.02 0.03 0.03 0.03 0.03 0.04 0.04 0.05 0.08 0.10 0.08 0.09 0.09 0.09 0.10 0.11 0.12 0.14 0.17 0.20 0.23 0.26 0.25 0.20 0.26 0.30 0.28 0.27 0.30 0.35 0.38 0.37 0.38 0.50 0.69 0.81 0.84 0.84 0.89 0.93
0.08 0.07 0.07 0.05 0.04 0.03 0.03 0.03 0.03 0.03 0.04 0.07 0.12 0.13 0.13 0.13 0.10 0.10 0.12 0.14 0.18 0.22 0.26 0.27 0.29 0.29 0.30 0.23 0.19 0.16 0.18 0.22 0.29 0.33 0.33 0.26 0.25 0.39 0.54 0.65 0.69 0.71 0.71
0.07 0.04 0.03 0.01 0.01 0.01 0.01 0.02 0.02 0.03 0.03 0.05 0.12 0.17 0.18 0.17 0.15 0.17 0.20 0.23 0.26 0.29 0.32 0.33 0.36 0.42 0.39 0.27 0.18 0.14 0.15 0.20 0.27 0.32 0.32 0.31 0.31 0.33 0.39 0.51 0.59 0.64 0.62
0.02 0.01 0.01 0.01 0.01 0.01 0.02 0.03 0.04 0.04 0.06 0.08 0.13 0.18 0.25 0.26 0.25 0.27 0.31 0.35 0.38 0.37 0.37 0.39 0.43 0.49 0.53 0.40 0.25 0.19 0.19 0.25 0.28 0.32 0.33 0.33 0.32 0.29 0.25 0.34 0.41 0.48 0.57
0.00 0.01 0.01 0.01 0.02 0.03 0.04 0.05 0.07 0.09 0.12 0.13 0.17 0.23 0.31 0.36 0.35 0.37 0.41 0.43 0.47 0.45 0.43 0.41 0.45 0.51 0.62 0.52 0.31 0.23 0.26 0.34 0.38 0.44 0.44 0.35 0.28 0.23 0.18 0.26 0.35 0.39 0.42
0.00 0.01 0.01 0.03 0.05 0.08 0.12 0.16 0.18 0.21 0.21 0.22 0.25 0.30 0.36 0.43 0.42 0.44 0.47 0.50 0.51 0.52 0.52 0.50 0.50 0.56 0.63 0.56 0.36 0.29 0.33 0.44 0.51 0.48 0.48 0.44 0.30 0.21 0.17 0.19 0.29 0.32 0.39
0.00 0.01 0.03 0.03 0.05 0.11 0.18 0.24 0.26 0.26 0.28 0.32 0.33 0.36 0.42 0.44 0.43 0.54 0.61 0.66 0.68 0.65 0.63 0.68 0.64 0.61 0.63 0.57 0.43 0.31 0.30 0.44 0.60 0.63 0.59 0.55 0.39 0.26 0.22 0.19 0.20 0.22 0.27
0.00 0.01 0.02 0.04 0.06 0.10 0.16 0.22 0.24 0.26 0.28 0.31 0.33 0.38 0.47 0.53 0.57 0.64 0.68 0.77 0.82 0.79 0.75 0.76 0.80 0.74 0.71 0.68 0.49 0.37 0.30 0.38 0.56 0.72 0.72 0.60 0.47 0.36 0.29 0.27 0.25 0.23 0.24
0.01 0.01 0.03 0.06 0.07 0.09 0.12 0.17 0.24 0.31 0.35 0.36 0.37 0.41 0.47 0.54 0.66 0.77 0.77 0.79 0.83 0.85 0.85 0.82 0.79 0.79 0.79 0.84 0.72 0.56 0.41 0.42 0.57 0.71 0.75 0.65 0.60 0.52 0.44 0.40 0.36 0.31 0.29
0.02 0.04 0.08 0.10 0.11 0.10 0.11 0.13 0.20 0.32 0.39 0.39 0.39 0.43 0.48 0.55 0.69 0.82 0.85 0.76 0.77 0.79 0.76 0.71 0.69 0.71 0.73 0.78 0.72 0.62 0.59 0.62 0.72 0.83 0.95 0.90 0.82 0.76 0.67 0.61 0.56 0.51 0.45
0.06 0.10 0.13 0.14 0.13 0.13 0.14 0.16 0.21 0.33 0.43 0.43 0.41 0.43 0.48 0.56 0.66 0.79 0.85 0.70 0.57 0.55 0.55 0.49 0.44 0.43 0.47 0.57 0.60 0.55 0.53 0.57 0.68 0.84 1.02 0.98 0.90 0.87 0.84 0.80 0.73 0.67 0.60